Location: Kawakawa
(35.3830°S, 174.0670°E)
Time: 06:44:34
(UTC+13:00)

Tiros 1 despin weight - All Passes

Search period start: 08 December 2019 00:00
Search period end: 18 December 2019 00:00
Orbit: 594 x 642 km, 48.2° (Epoch: 06 December)

Date Brightness Start Highest point End Pass type
(mag) Time Alt. Az. Time Alt. Az. Time Alt. Az.
08 Dec - 00:37:09 10° SW 00:41:31 35° SSE 00:45:51 10° E visible
08 Dec - 02:18:39 10° WSW 02:23:15 51° NW 02:27:48 10° NNE visible
08 Dec - 18:04:22 10° NNW 18:08:43 45° NE 18:13:10 10° ESE daylight
08 Dec - 19:46:05 10° W 19:50:22 37° SSW 19:54:45 10° SE daylight
08 Dec - 21:29:48 10° SW 21:33:00 18° S 21:36:13 10° SE visible
08 Dec - 23:12:21 10° SW 23:15:55 21° SSE 23:19:31 10° ESE visible
09 Dec - 00:53:35 10° SW 00:58:16 58° SSE 01:02:55 10° ENE visible
09 Dec - 02:35:44 10° WSW 02:39:36 25° NW 02:43:25 10° N visible
09 Dec - 16:41:51 10° NNE 16:44:12 14° NE 16:46:33 10° E daylight
09 Dec - 18:20:36 10° NW 18:25:12 89° SW 18:29:54 10° SE daylight
09 Dec - 20:03:25 10° WSW 20:07:15 25° SSW 20:11:10 10° SE daylight
09 Dec - 21:47:02 10° SW 21:50:06 17° S 21:53:12 10° SE visible
09 Dec - 23:28:50 10° SW 23:32:55 28° SSE 23:36:59 10° E visible
10 Dec - 01:10:07 10° SW 01:14:52 77° NW 01:19:35 10° NE visible
10 Dec - 02:54:13 10° WNW 02:55:49 12° NW 02:57:26 10° NNW night (unlit)
10 Dec - 16:56:30 10° NNW 17:00:26 29° NE 17:04:27 10° ESE daylight
10 Dec - 18:37:23 10° WNW 18:41:50 49° SSW 18:46:24 10° SE daylight
10 Dec - 20:20:54 10° WSW 20:24:16 19° SSW 20:27:41 10° SE daylight
10 Dec - 22:03:55 10° SW 22:07:13 18° S 22:10:33 10° SE visible
10 Dec - 23:45:14 10° SW 23:49:45 42° SSE 23:54:15 10° E visible
11 Dec - 01:26:56 10° WSW 01:31:18 38° NW 01:35:39 10° NNE visible
11 Dec - 17:12:20 10° NW 17:16:49 61° NE 17:21:24 10° ESE daylight
11 Dec - 18:54:32 10° W 18:58:38 30° SSW 19:02:48 10° SE daylight
11 Dec - 20:38:18 10° SW 20:41:22 17° S 20:44:28 10° SE daylight
11 Dec - 22:20:29 10° SW 22:24:16 23° SSE 22:28:03 10° ESE visible
12 Dec - 00:01:41 10° SW 00:06:26 75° SE 00:11:09 10° ENE visible
12 Dec - 01:44:22 10° W 01:47:37 18° NW 01:50:51 10° N visible
12 Dec - 15:48:59 10° N 15:52:11 19° NE 15:55:27 10° E daylight
12 Dec - 17:28:49 10° WNW 17:33:21 69° SW 17:38:01 10° SE daylight
12 Dec - 19:11:58 10° WSW 19:15:34 22° SSW 19:19:14 10° SE daylight
12 Dec - 20:55:23 10° SW 20:58:29 17° S 21:01:37 10° SE visible
12 Dec - 22:36:55 10° SW 22:41:11 32° SSE 22:45:27 10° E visible
13 Dec - 00:18:19 10° WSW 00:22:58 57° NW 00:27:35 10° NE visible
13 Dec - 16:04:17 10° NNW 16:08:29 40° NE 16:12:48 10° ESE daylight
13 Dec - 17:45:46 10° W 17:50:04 39° SSW 17:54:27 10° SE daylight
13 Dec - 19:29:27 10° SW 19:32:38 18° S 19:35:51 10° SE daylight
13 Dec - 21:12:06 10° SW 21:15:35 20° SSE 21:19:03 10° ESE visible
13 Dec - 22:53:19 10° SW 22:57:57 53° SSE 23:02:35 10° ENE visible
14 Dec - 00:35:19 10° WSW 00:39:21 28° NW 00:43:21 10° NNE visible
14 Dec - 14:42:18 10° NNE 14:44:00 12° NE 14:45:43 10° ENE daylight
14 Dec - 16:20:25 10° NW 16:24:56 82° NE 16:29:35 10° SE daylight
14 Dec - 18:03:04 10° WSW 18:06:56 26° SSW 18:10:51 10° SE daylight
14 Dec - 19:46:44 10° SW 19:49:44 17° S 19:52:47 10° SE daylight
14 Dec - 21:28:36 10° SW 21:32:34 26° SSE 21:36:33 10° ESE visible
14 Dec - 23:09:50 10° SW 23:14:35 85° NW 23:19:18 10° NE visible
15 Dec - 00:53:21 10° W 00:55:35 13° NW 00:57:50 10° NNW visible
15 Dec - 14:56:30 10° N 15:00:13 26° NE 15:04:01 10° ESE daylight
15 Dec - 16:37:06 10° WNW 16:41:33 53° SSW 16:46:06 10° SE daylight
15 Dec - 18:20:32 10° WSW 18:23:55 20° SSW 18:27:21 10° SE daylight
15 Dec - 20:03:39 10° SW 20:06:51 18° S 20:10:04 10° SE daylight
15 Dec - 21:45:00 10° SW 21:49:25 39° SSE 21:53:52 10° E visible
15 Dec - 23:26:35 10° WSW 23:31:03 42° NW 23:35:29 10° NNE visible
16 Dec - 15:12:11 10° NW 15:16:35 54° NE 15:21:04 10° ESE daylight
16 Dec - 16:54:14 10° W 16:58:20 32° SSW 17:02:30 10° SE daylight
16 Dec - 18:37:59 10° SW 18:41:00 17° S 18:44:04 10° SE daylight
16 Dec - 20:20:15 10° SW 20:23:54 22° SSE 20:27:34 10° ESE daylight
16 Dec - 22:01:26 10° SW 22:06:08 68° SE 22:10:50 10° ENE visible
16 Dec - 23:43:52 10° W 23:47:22 21° NW 23:50:51 10° N visible
17 Dec - 13:49:09 10° N 13:52:00 17° NE 13:54:53 10° E daylight
17 Dec - 15:28:36 10° WNW 15:33:06 76° SW 15:37:42 10° SE daylight
17 Dec - 17:11:37 10° WSW 17:15:15 22° SSW 17:18:56 10° SE daylight
17 Dec - 18:55:07 10° SW 18:58:07 17° S 19:01:09 10° SE daylight
17 Dec - 20:36:42 10° SW 20:40:51 30° SSE 20:45:01 10° E daylight
17 Dec - 22:18:01 10° WSW 22:22:41 64° NW 22:27:21 10° NE visible
